Preview of NWS' New Version of Forecast
This preview is not operational and should not be used for support decisions.
Latest weather observations around

Mobile, Mobile Downtown Airport (KBFM)

Using English Units (Switch to International System of Units)
Date/ Time (CDT) Wind (mph) Vis. (mi) Weather Sky Cond. Temp (°F) Rel. Humidity Wind Chill (°F) Heat Index (°F) Pressure Precip. (in)
Air Dwpt 6 hour Altimeter (inHg) Sea level (inHg) 1 hr 3 hr 6 hr
Max Min
Jun 19 03:53 SSW 3 10 Mostly Clear FEW025 78 77     96%   81 29.9 29.9      
Jun 19 03:23 Calm 10 Clear CLR 78 77     96%   81 29.91        
Jun 19 02:53 Calm 4 Fog/Mist CLR 76 75     97%   78 29.91 29.91      
Jun 19 01:53 Calm 10 Clear CLR 78 77     96%   81 29.91 29.91      
Jun 19 00:53 SW 3 10 Clear CLR 78 77     96%   81 29.91 29.91      
Jun 18 23:53 Calm 10 Mostly Clear FEW018 78 76     93%   80 29.92 29.92      
Jun 18 22:53 S 3 10 Clear CLR 79 77     94%   83 29.93 29.92      
Jun 18 21:53 Calm 10 Mostly Clear FEW018 79 77     94%   83 29.92 29.92      
Jun 18 20:53 S 3 10 Clear CLR 79 77     94%   83 29.91 29.91      
Jun 18 20:24 SSE 3 10 Mostly Clear FEW008 79 76     90%   83 29.91        
Jun 18 19:53 S 3 10 Partly Cloudy FEW020 SCT100 79 77     94%   83 29.91 29.91      
Jun 18 19:00 SSW 3 10 Mostly Cloudy FEW021 BKN100 79 75     88%   83 29.9        
Jun 18 18:53 S 5 10 Mostly Cloudy FEW021 BKN100 80 76     87%   85 29.9 29.9 0   0
Jun 18 17:53 SSW 3 10 Partly Cloudy FEW021 SCT035 80 77     90%   86 29.91 29.91 0    
Jun 18 17:08 6 10 Heavy Rain FEW026 SCT034 BKN050 80 77     90%   86 29.92   0    
Jun 18 17:01 3 2.5 Light Rain FEW024 BKN029 OVC100 83 77     82%   92 29.92   0    
Jun 18 16:53 Calm 10 Mostly Cloudy FEW026 SCT034 BKN050 83 77     82%   92 29.92 29.92 0    
Jun 18 15:53 Calm 10 Mostly Cloudy FEW010 SCT022 BKN028 83 76     79%   91 29.93 29.93   0  
Jun 18 15:02 Calm 10 Partly Cloudy FEW010 SCT055 82 76     82%   89 29.94        
Jun 18 14:53 SSE 6 10 Partly Cloudy FEW010 SCT055 82 76     82%   89 29.94 29.94 0    
Jun 18 13:53 SE 5 8 Rain FEW010 SCT035 BKN085 79 75     88%   83 29.97 29.97 0    
Jun 18 12:53 E 13 10 Mostly Cloudy SCT010 BKN029 BKN100 79 75     88%   83 30 30 0   1
Jun 18 12:34 NNE 8 10 Mostly Cloudy SCT005 BKN025 BKN095 77 75     94%   79 30   0    
Jun 18 11:53 NNW 8 3 Thunderstorms and Rain and Fog/Mist FEW005 BKN025 OVC032 75 74     96%   77 30.01 30 0    
Jun 18 11:37 W 6 1 Thunderstorms and Rain and Fog/Mist FEW005 SCT018 BKN025 75 74     96%   77 30.01   0    
Jun 18 10:53 NNW 8 4 Thunderstorms and Rain and Fog/Mist SCT017 BKN033 OVC075 76 73     91%   77 30 30 0    
Jun 18 10:34 SW 6 1 Thunderstorms and Heavy Rain and Fog/Mist FEW017 BKN033 OVC075 75 73     94%   77 30.01   0    
Jun 18 10:19 SSE 6 10 Thunderstorms SCT025 BKN033 BKN065 76 73     91%   77 29.99   0    
Jun 18 10:14 Calm 10 Mostly Cloudy BKN028 BKN060 BKN100 76 73     91%   77 29.98   0    
Jun 18 09:53 W 5 10 Light Rain SCT021 BKN050 OVC100 77 73     88%   79 29.98 29.98 0 0  
Jun 18 09:35 S 6 10 Light Rain SCT021 BKN050 OVC100 76 72     88%   77 29.98   0    
Jun 18 09:25 SSE 9 3 Thunderstorms and Rain and Fog/Mist SCT021 BKN050 OVC100 75 71     88%   76 29.98   0    
Jun 18 09:23 SSE 7 2 Thunderstorms and Rain and Fog/Mist SCT021 BKN050 OVC100 74 71     91%   75 29.98   0    
Jun 18 09:17 SSW 9 0.75 Thunderstorms and Heavy Rain and Fog/Mist SCT021 BKN050 OVC100 75 71     88%   76 29.99   0    
Jun 18 09:08 S 22 9 Thunderstorms and Rain FEW008 SCT015 BKN100 83 76     79%   91 29.98        
Jun 18 08:53 S 6 10 Mostly Cloudy FEW015 BKN100 86 79     80%   100 29.97 29.97      
Jun 18 07:53 Calm 10 Mostly Cloudy FEW015 BKN120 82 78     88%   91 29.97 29.97 0    
Jun 18 06:53 S 5 10 Mostly Cloudy FEW090 BKN120 80 77     90%   86 29.96 29.96     0
Jun 18 05:53 S 3 10 Clear CLR 79 76     90%   83 29.96 29.96      
Jun 18 04:53 S 5 10 Clear CLR 79 76     90%   83 29.96 29.95      
Jun 18 03:53 SSE 6 10 Clear CLR 79 76     90%   83 29.95 29.94   0  
Jun 18 03:24 SSE 5 10 Clear CLR 78 75     90%   80 29.95        
Jun 18 02:53 SSE 5 10 Clear CLR 78 75     90%   80 29.96 29.96 0    
Jun 18 01:53 Calm 10 Light Rain FEW075 SCT110 76 75     97%   78 29.97 29.96 0    
Jun 18 00:53 SW 7 4 Rain and Fog/Mist FEW019 BKN055 OVC110 77 75     94%   79 29.99 29.99 0   0
Jun 18 00:36 SW 11 9 Mostly Cloudy FEW016 SCT024 BKN033 80 74     82%   85 30        
Jun 18 00:20 SSE 3 10 Thunderstorms FEW024 82 74     77%   88 29.99        
Jun 17 23:53 SSE 6 10 Mostly Cloudy FEW020 SCT025 BKN110 82 74     77%   88 30 30      
Jun 17 23:26 Calm 10 Mostly Cloudy SCT023 SCT030 BKN090 83 76     79%   91 30        
Jun 17 23:16 SSW 3 10 Cloudy BKN023 BKN034 OVC050 83 76     79%   91 30        
Jun 17 23:00 SW 3 10 Cloudy SCT023 BKN036 OVC050 83 76     79%   91 30        
Jun 17 22:53 Calm 10 Mostly Cloudy BKN023 BKN037 BKN047 84 76     77%   93 30 30      
Jun 17 21:53 S 6 10 Partly Cloudy FEW023 SCT034 84 76     77%   93 29.99 29.99      
Jun 17 20:53 SSW 3 10 Mostly Clear FEW025 83 76     79%   91 29.98 29.98      
Jun 17 19:53 Calm 10 Mostly Clear FEW028 84 75     74%   92 29.98 29.98      
Jun 17 18:53 S 6 10 Mostly Clear FEW030 85 75     72%   93   29.96      
Jun 17 17:53   10 Partly Cloudy SCT030 87 75     68%   97 29.95 29.94      
Jun 17 16:53 S 10 10 Partly Cloudy SCT035 87 75     68%   97 29.94 29.94      
Jun 17 15:53 SSE 10 10 Partly Cloudy SCT040 89 75     63%   99 29.97 29.96      
Jun 17 14:53 S 9 10 Partly Cloudy SCT040 90 75     62%   101 29.98 29.98      
Jun 17 13:53 S 13 10 Mostly Clear FEW025 90 75     62%   101 29.99 29.98      
Jun 17 12:53 S 10 10 Clear CLR 90 77     66%   103 30.01 30.01      
Jun 17 11:53 SSE 13 10 Mostly Clear FEW025 89 76     65%   100 30.01 30.01      
Jun 17 10:53 SSE 8 10 Clear CLR 89 76     65%   100 30.01 30.01      
Jun 17 09:53 SE 9 10 Mostly Clear FEW025 88 76     68%   99 30.01 30.01      
Jun 17 07:53 SE 8 10 Mostly Clear FEW025 85 77     77%   95 30.01 30.01      
Jun 17 06:53 Calm 10 Mostly Clear FEW023 80 76     87%   85 29.98 29.98      
Jun 17 05:53 Calm 10 Clear CLR 75 73     94%   77 29.96 29.96      
Jun 17 04:53 W 3 10 Mostly Clear FEW023 78 76     93%   80   29.96      
Jun 17 03:53 SE 7 10 Mostly Clear FEW023 80 77     90%   86 29.96 29.95      
Jun 17 02:53 ENE 5 10 Partly Cloudy FEW024 SCT032 75 73     94%   77 29.97 29.96      
Jun 17 01:53 NNW 5 10 Clear CLR 76 73     91%   77 29.99 29.99      
Jun 17 00:53 Calm 10 Clear   76 73     91%   77 30 30      
Jun 16 23:53 Calm 10 Clear CLR 77 75     94%   79 30.02 30.01      
Jun 16 22:53 WNW 5 10 Clear CLR 78 75     90%   80 30.01 30.01      
Jun 16 21:53 SSW 3 10 Clear CLR 82 75     79%   89 30.01 30.01      
Jun 16 20:53 SSW 3 10 Clear CLR 81 74     79%   86 30 30      
Jun 16 19:53 Calm 10 Clear CLR 82 74     77%   88 30.01 30.01      
Jun 16 18:53 S 3 10 Clear CLR 85 74     70%   92 29.99 29.99      
Jun 16 17:53 S 8 10 Partly Cloudy FEW031 SCT041 87 75     68%   97 29.97 29.97      
Jun 16 16:53 SSE 9 10 Partly Cloudy FEW036 SCT043 SCT055 88 75     66%   98 29.96 29.96      
Jun 16 15:53 SSE 8 10 Partly Cloudy FEW029 SCT033 89 76     65%   100 29.97 29.97      
Jun 16 14:53 SSE 9 10 Partly Cloudy FEW028 SCT034 SCT065 90 77     66%   103 29.98 29.98      
Jun 16 13:53 SSE 10 10 Partly Cloudy FEW024 SCT046 SCT060 89 76     65%   100 30 29.99      
Jun 16 12:53 6 10 Partly Cloudy SCT037 89 73     59%   97 30.03 30.03 0   0
Jun 16 11:53 5 10 Partly Cloudy FEW020 SCT033 SCT070 80 72     76%   84 30.06 30.05      
Jun 16 11:44 WSW 5 10 Partly Cloudy FEW020 SCT033 SCT070 79 71     77%   82 30.06        
Jun 16 11:23 WSW 6 10 Mostly Cloudy FEW022 SCT037 BKN095 78 71     79%   79 30.06        
Jun 16 11:04 SW 6 10 Thunderstorms FEW019 SCT028 SCT035 80 73     79%   84 30.07        
Jun 16 10:53 S 6 10 Mostly Clear FEW048 84 77     80%   94 30.07 30.06      
Jun 16 10:33 SE 7 10 Thunderstorms CLR 86 76     72%   96 30.06        
Jun 16 10:26 SE 8 10 Clear CLR 88 77     70%   100 30.06        
Jun 16 09:53 E 7 10 Clear CLR 87 77     72%   99 30.06 30.06      
Jun 16 08:53 E 7 10 Mostly Cloudy FEW019 BKN045 87 78     75%   100 30.06 30.06      
Jun 16 08:32 E 7 10 Mostly Cloudy BKN019 86 78     77%   98 30.06        
Jun 16 07:53 Calm 10 Clear CLR 85 77     77%   95 30.05 30.04      
Jun 16 06:53 Calm 10 Clear CLR 81 77     88%   88 30.03 30.02      
Jun 16 05:53 SW 3 10 Mostly Clear FEW020 76 74     94%   78 30.02 30.01      
Jun 16 04:53 SSW 3 10 Clear CLR 79 75     88%   83 30 29.99      
Jun 16 03:40 SSW 3 10 Partly Cloudy SCT022 80 75     85%   85 29.99        
Jun 16 03:28 SSW 3 10 Mostly Cloudy BKN021 BKN027 80 76     87%   85 29.99        
Jun 16 02:53 S 5 10 Clear CLR 81 75     82%   87 29.99 29.99      
May 15 08:00 NNE 6 10 Fog/Mist SCT018 76 73     91%   77 29.95        
May 14 17:53 NW 10 10 Light Rain FEW043 SCT095 OVC120 74 67     79%   75 29.92 29.92 0    
May 14 15:53 NE 10 10 Partly Cloudy SCT085 95 62     34%   96 29.92 29.91      
May 14 03:53 Calm 10 Clear CLR 71 70     96%   72 30 30      
May 13 19:53 SSE 6 10 Mostly Cloudy BKN085 BKN100 83 68     61%   86 30.01 30 0    
May 13 12:53 ENE 10 10 Clear CLR 90 65     44%   92 30.09 30.09      
May 13 07:53 N 6 10 Clear CLR 76 67     74%   77 30.12 30.12      
May 12 07:53 NE 5 10 Clear CLR 75 70     84%   76 30.15 30.15      
May 12 02:53 Calm 10 Clear CLR 65 64     97%     30.08 30.08      
Jun 12 05:53 ESE 7 10 Clear CLR 79 77     94%   83 30.09 30.08      
Notice The following observation data may not be complete
Jun 12 02:30   10 Mostly Cloudy BKN017 BKN026 BKN031          %              
Jun 10 21:53 SE 9 10 Clear CLR 79 72     79%   82 30.04 30.04      
Jun 10 19:53 6 10 Clear CLR 80 70     71%   83 30.01 30.01      
Jun 10 08:53 E 5 10 Clear CLR 78 70     76%   79 30.05 30.04      
Jun 08 01:53 N 11 10 Clear CLR 74 58     57%   74 29.82 29.82      
Jun 05 19:53 S 7 10 Mostly Cloudy BKN019 80 75     85%   85 29.77 29.77